Location: Bednik
(45.3500°N, 16.3833°E)
Time: 16:22:06
(UTC+00:00)

Meteor 2-4 Rocket - Pass Details

Date: 08 August 2020
Orbit: 798 x 909 km, 81.2° (Epoch: 19 September)

Event Time Altitude Azimuth Distance (km) Brightness Sun altitude
Rises 21:09:37 0° 349° (N) 3,472 8.1 -23.9°
Reaches altitude 10° 21:12:05 10° 350° (N) 2,514 7.1 -24.1°
Maximum altitude 21:17:48 85° 79° (E) 853 3.6 -24.6°
Enters shadow 21:18:40 65° 159° (SSE) 922 3.5 -24.7°
